Voltar ao catálogo

AMC-15

AtivoComunicaçõesGEO
NORAD 28446·PAYLOAD·🇱🇺 Luxembourg

Lançado Oct 14, 2004 de Baikonur Cosmodrome

Loading…

TLE

AtualizadoSource: CelesTrak SupGP

Época: Sep 13, 2026, 23:30 UTC

1 28446C 04041A   26256.97916667  .00000001  00000+0  00000+0 0  2560
2 28446   0.0437 319.2298 0002149 183.8059  97.3784  1.00271969    18

Acompanhe AMC-15 em tempo real com AllMySat

Download on the App Store